Location: Stuttgart
(48.8069°N, 9.1544°E)
Time: 04:16:14
(UTC+02:00)

ISS - Pass Details

Date: 16 May 2021
Orbit: 417 x 422 km, 51.6° (Epoch: 15 June)

Event Time Altitude Azimuth Distance (km) Brightness Sun altitude
Rises 22:49:44 0° 242° (WSW) 2,358 0.2 -14.1°
Reaches altitude 10° 22:51:50 10° 241° (WSW) 1,497 -0.9 -14.3°
Maximum altitude 22:55:11 75° 156° (SSE) 439 -3.9 -14.7°
Drops below altitude 10° 22:58:34 10° 71° (ENE) 1,507 -1.1 -15.0°
Sets 23:00:40 0° 70° (ENE) 2,374 -0.1 -15.2°
